Torna al catalogo

GHOST-2

LostScienzaPO
NORAD 56197·PAYLOAD·🇺🇸 United States

Lanciato Apr 15, 2023 da Vandenberg Space Force Base

Loading…

Prossimi Passaggi (prossime 24 ore)

TLE

ObsoletoSource: Space-Track

Epoca: Dec 15, 2025, 05:04 UTC

1 56197U 23054V   25349.21142485  .10341550  25867-5  16806-3 0  9998
2 56197  97.2907 265.6599 0007299 240.3024 119.7554 16.47991985150937

Traccia GHOST-2 in tempo reale con AllMySat

Download on the App Store